Regional Weather Roundup
Issued by NWS

Home | Current Version | Previous Version | Graphics & Text | Print | Product List | Glossary On
Versions: 1 2 3 4 5 6 7 8 9 10 11 12 13 14 15 16 17 18 19 20 21 22 23 24 25 26 27 28 29 30 31 32 33 34 35 36 37 38 39 40 41 42 43 44 45 46 47 48 49 50
000
ASUS43 KLSX 180707
RWRMO

WEATHER SUMMARY FOR MISSOURI
NATIONAL WEATHER SERVICE SPRINGFIELD MO
100 AM CST MON DEC 18 2017

NOTE: "FAIR" INDICATES FEW OR NO CLOUDS BELOW 12,000 FEET WITH NO
       SIGNIFICANT WEATHER AND/OR OBSTRUCTIONS TO VISIBILITY.
       CURRENT SKY AND/OR WEATHER CONDITIONS ARE NOT AVAILABLE FOR
       CHILLICOTHE AND FARMINGTON.

MOZ001>031-035>038-043-044-053-054-180800-
...NORTHERN AND WESTERN MISSOURI...

CITY           SKY/WX    TMP DP  RH WIND       PRES   REMARKS
KANSAS CTY INT CLOUDY    44  41  89 SW12      30.01F
KANSAS C DTWN  CLOUDY    46  41  82 SW10      30.03S
LEE`S SUMMIT   CLOUDY    42  42 100 SW9       30.04S
ST JOSEPH      CLOUDY    39  39 100 NW8       30.02R FOG
CHILLICOTHE      N/A     45  42  89 SW7       30.02S
KIRKSVILLE     CLOUDY    44  32  62 SW8       30.00F HAZE

$$
MOZ066>068-077>081-088>096-101>105-180800-
...SOUTHWEST MISSOURI...

CITY           SKY/WX    TMP DP  RH WIND       PRES   REMARKS
SPRINGFIELD    CLOUDY    45  45 100 W7        30.07R FOG
JOPLIN         CLOUDY    44  44 100 SW6       30.09S

$$
MOZ032>034-039>042-045>050-055>058-069>072-180800-
...CENTRAL MISSOURI...

CITY           SKY/WX    TMP DP  RH WIND       PRES   REMARKS
COLUMBIA       CLOUDY    45  42  89 SW12      30.06R
JEFFERSON CITY CLOUDY    47  41  80 SW8       30.07S
ROLLA          CLOUDY    44  44 100 W7        30.07R FOG
SEDALIA        CLOUDY    45  44  97 SW9       30.06S
WHITEMAN AFB   CLOUDY    43  41  92 SW9       30.01S
WARRENSBURG    CLOUDY    43  41  93 S6        30.05S
OSAGE BEACH    LGT RAIN  44  43  96 SW3       30.08S

$$
MOZ051-052-059>065-180800-
...EAST CENTRAL MISSOURI...

CITY           SKY/WX    TMP DP  RH WIND       PRES   REMARKS
ST LOUIS INTL  CLOUDY    48  43  82 W13       30.06S
SPIRIT OF STL  CLOUDY    47  43  86 W7        30.06S
ST CHARLES     CLOUDY    48  41  76 SW9       30.06R

$$
MOZ072>076-082>087-097>100-106>115-180800-
...SOUTH CENTRAL AND SOUTHEAST MISSOURI...

CITY           SKY/WX    TMP DP  RH WIND       PRES   REMARKS
CAPE GIRARDEAU CLOUDY    45  43  93 S5        30.10F FOG
FARMINGTON     CLOUDY   N/A N/A N/A S3        30.08S
POPLAR BLUFF   CLOUDY    45  44  97 S7        30.10F FOG
WEST PLAINS    FOG       45  45 100 S5        30.07F VSB 1/4

$$



USA.gov is the U.S. government's official web portal to all federal, state and local government web resources and services.